Location: Grevenbroich
(51.0902°N, 6.5859°E)
Time: 02:13:30
(UTC+01:00)

ISS - Pass Details

Date: 18 February 2026
Orbit: 416 x 427 km, 51.6° (Epoch: 7 March)

Event Time Altitude Azimuth Distance (km) Brightness Sun altitude
Exits shadow 06:25:57 18° 244° (WSW) 1,098 -2.2 -12.4°
Maximum altitude 06:28:18 70° 162° (SSE) 448 -3.6 -12.0°
Drops below altitude 10° 06:31:38 10° 79° (E) 1,495 0.4 -11.5°
Sets 06:33:44 0° 77° (ENE) 2,359 1.7 -11.2°
